Theta_e
315 316 314 314 313 315 316 316 318 317 316 313 314 313 313 312 311 310 309 307 303 301 300 299 298 297 297 297 297 296 294 293 291 290 289 288 287 287 286 285 285 285 285 285
316 318 316 317 314 315 316 316 318 316 316 313 312 311 312 312 312 310 308 305 301 300 299 298 296 294 294 293 293 293 291 289 289 288 288 287 286 285 285 285 284 284 284 284
315 316 317 316 316 315 316 315 314 315 313 312 313 313 312 312 312 309 307 302 300 299 297 296 294 293 292 292 291 291 289 289 288 287 286 285 285 284 284 284 284 283 283 283
313 315 313 314 314 314 315 315 313 313 312 313 313 312 310 311 310 308 304 301 299 297 295 294 293 293 292 291 290 289 288 287 287 286 285 284 284 284 283 283 283 283 282 281
314 315 314 316 317 314 313 314 313 313 312 311 309 308 309 310 309 306 302 300 297 295 294 292 292 291 291 290 289 288 287 286 286 285 284 284 284 283 283 282 281 282 281 280
310 313 315 314 314 314 314 316 313 313 311 310 310 312 308 307 306 302 300 297 295 294 292 292 291 291 290 288 288 287 286 285 285 284 284 283 283 283 282 281 280 281 280 279
310 314 314 313 313 312 315 315 312 312 311 311 313 309 305 303 302 300 297 295 294 292 291 291 290 290 289 288 287 286 285 285 284 284 283 283 283 282 281 281 280 280 279 278
310 310 316 314 312 315 313 311 312 311 310 310 305 305 304 302 299 297 295 294 292 290 290 290 290 290 287 287 286 285 285 284 284 283 283 283 282 281 281 281 281 280 280 279
314 313 313 313 312 309 309 311 311 309 308 305 304 303 302 299 297 296 294 292 291 289 288 288 288 289 287 285 285 285 284 283 283 283 283 282 281 281 281 281 281 280 280 279
315 314 314 314 314 312 309 310 309 308 306 304 304 301 300 297 296 294 292 290 288 287 286 286 287 287 287 285 285 284 283 283 282 282 282 281 281 281 281 281 281 280 280 279
314 314 313 314 313 312 311 308 307 306 305 304 302 300 298 297 295 292 290 288 287 286 285 285 285 285 285 284 284 283 283 282 282 282 281 280 280 281 281 281 281 280 280 279
314 313 313 313 312 310 309 308 306 306 304 303 301 299 298 296 293 290 289 287 286 285 285 284 285 284 284 284 283 283 281 281 281 281 280 280 280 280 280 280 280 280 279 280
312 310 310 310 309 310 310 307 306 306 304 302 301 299 297 294 292 290 288 287 286 285 285 284 284 283 283 283 282 282 281 280 280 280 279 279 280 280 280 279 279 278 278 278
306 310 311 311 310 310 309 306 306 305 303 302 300 298 296 293 291 289 288 287 286 285 284 284 283 283 282 282 282 281 280 280 279 279 279 279 279 279 279 279 278 278 278 276
307 310 310 309 309 309 306 304 303 303 301 299 299 297 294 292 291 289 287 286 286 285 284 284 283 282 282 281 281 280 280 279 278 279 279 279 278 278 278 278 277 277 276 276
310 310 309 309 311 308 306 305 303 302 299 298 297 295 294 293 290 288 286 286 285 283 284 284 283 281 281 281 281 280 279 278 278 278 278 278 277 277 277 277 276 276 276 275
310 311 311 311 310 308 306 305 304 301 299 297 296 294 292 289 287 286 285 285 286 285 284 284 282 281 280 280 280 279 278 278 278 278 278 277 277 277 277 276 276 275 275 274
308 308 309 308 308 306 305 304 303 301 298 296 294 291 289 288 287 285 284 285 284 283 283 283 281 280 279 279 279 279 278 278 277 277 277 277 276 276 276 275 275 275 274 274
304 305 305 306 307 306 305 303 301 299 296 293 291 290 289 288 286 284 284 284 282 281 281 281 280 279 278 278 278 278 277 277 277 276 276 276 275 275 274 274 274 274 273 273
305 305 306 306 307 306 302 301 298 296 293 291 290 288 287 285 284 284 283 283 283 283 281 280 279 278 277 277 277 277 276 276 276 276 275 275 274 273 272 272 273 272 271 271
299 301 302 304 305 305 302 298 296 293 291 290 289 288 286 284 284 283 283 281 281 282 281 279 279 277 276 277 276 276 276 275 275 275 274 274 273 272 271 271 271 270 269 269
297 296 296 298 301 301 300 297 296 292 290 289 288 286 284 283 283 284 283 282 280 281 280 279 278 277 276 276 276 275 275 274 274 274 273 272 271 271 270 270 269 269 268 267
295 294 295 297 296 298 296 295 293 291 290 288 286 285 285 284 283 282 279 280 281 280 279 278 277 276 275 275 275 275 274 274 273 272 272 271 270 270 269 269 268 268 267 266
292 292 293 295 295 293 290 291 290 290 288 286 286 285 284 283 282 283 282 280 280 279 278 277 276 275 275 275 275 274 273 273 272 271 271 270 269 269 268 268 267 266 266 266
291 291 292 291 292 292 290 288 287 286 286 285 284 284 284 284 286 281 281 280 279 279 277 276 275 274 275 274 274 273 273 272 271 270 270 269 269 268 268 267 266 266 265 265
290 290 291 291 291 289 287 287 286 285 284 284 283 282 282 282 283 281 280 280 278 277 276 274 274 274 274 273 272 272 272 271 270 270 269 268 268 267 267 266 266 265 265 265
289 289 289 288 288 287 287 287 286 285 285 283 280 279 280 280 280 281 281 278 277 276 275 274 274 273 273 272 271 271 271 270 270 269 268 268 267 267 266 266 266 265 265 265
Wind_Speed
6 6 6 7 6 8 7 6 7 6 9 9 15 14 12 9 9 10 10 9 9 10 17 21 24 27 30 33 33 30 28 26 25 22 18 15 13 12 10 10 11 10 8 6
5 5 7 5 7 8 5 3 4 3 6 5 6 8 8 12 12 11 10 10 11 15 20 21 23 26 30 31 29 27 27 26 22 18 14 13 11 11 11 11 10 8 7 5
4 2 2 4 8 7 5 5 7 6 10 5 5 14 17 15 13 13 13 12 12 15 19 21 24 30 31 30 27 26 25 22 18 16 15 12 11 12 12 11 9 8 6 5
3 3 3 7 4 7 11 8 10 3 6 13 12 11 8 12 15 15 15 13 15 19 21 26 30 30 30 28 26 25 23 20 16 13 13 11 11 12 11 9 8 7 6 5
4 4 4 3 4 6 8 10 10 9 6 6 9 6 3 8 13 15 15 21 22 25 30 31 31 30 29 26 24 22 20 17 14 12 12 11 11 11 10 9 8 5 5 4
3 5 8 8 5 2 3 5 7 9 13 17 13 7 5 11 12 16 23 27 27 30 32 33 30 29 27 25 23 21 18 16 13 10 11 10 11 10 8 8 7 5 5 5
2 4 6 6 6 5 6 7 5 10 15 19 12 4 10 16 16 26 29 29 31 33 31 33 31 28 26 24 22 20 17 15 12 10 9 8 10 8 6 7 7 6 4 6
3 2 6 5 3 6 6 1 6 6 10 14 7 12 19 18 18 25 26 28 29 29 30 32 29 26 25 23 21 18 15 13 11 10 8 9 8 6 4 4 5 4 4 5
7 6 5 3 5 4 6 5 6 7 6 11 15 13 17 17 18 25 29 27 28 32 31 29 26 23 25 23 20 17 15 12 11 10 7 9 7 4 4 2 1 1 2 5
4 4 6 8 4 3 7 6 6 7 15 16 14 18 17 16 17 24 26 27 30 32 28 26 23 21 20 22 18 16 14 12 10 8 9 9 5 3 5 3 3 3 5 5
3 4 8 5 3 4 3 6 8 10 11 14 20 16 19 17 20 25 27 27 30 29 28 27 24 22 20 19 17 17 14 11 9 9 10 7 4 2 2 2 4 5 6 7
4 2 3 6 7 3 9 10 14 15 10 14 20 21 22 17 25 28 28 29 27 28 32 29 25 22 19 17 16 16 13 10 10 10 8 5 4 5 2 1 1 1 4 4
3 7 7 10 8 4 2 7 16 17 16 20 20 26 27 26 29 29 28 29 30 32 33 30 26 23 19 17 16 14 12 10 8 8 7 5 4 4 2 2 1 3 2 1
12 5 5 2 4 7 6 6 2 13 18 22 27 28 28 28 29 30 30 31 33 33 32 29 25 22 19 17 15 13 11 8 6 7 6 5 5 3 2 1 2 3 2 5
10 8 9 6 6 6 6 15 9 11 14 15 26 27 31 29 29 28 31 35 35 33 31 28 25 22 18 16 15 15 11 7 8 7 7 6 3 1 1 2 3 1 1 6
5 4 7 6 4 4 8 10 14 11 13 19 23 25 27 29 29 30 33 38 37 29 32 28 24 21 19 17 16 15 11 8 8 8 7 3 1 2 3 3 2 1 2 4
5 7 5 5 6 5 13 14 14 16 17 21 24 28 30 30 29 29 30 32 31 34 32 28 24 21 17 16 16 16 13 9 8 7 6 3 3 4 3 2 1 0 3 4
7 8 7 6 6 5 5 9 14 20 19 26 30 32 32 32 28 29 30 33 31 29 28 25 22 19 17 15 15 14 12 10 8 8 6 6 3 1 0 1 2 0 4 3
10 10 13 13 16 7 8 12 19 21 25 29 31 28 28 28 32 33 37 35 33 28 26 24 21 18 16 15 14 13 11 10 9 8 7 5 2 1 2 2 2 1 5 4
6 16 21 19 17 14 11 17 24 25 27 31 31 29 27 29 34 36 35 29 29 29 30 26 22 18 16 15 14 12 10 9 9 9 6 4 1 1 2 2 2 3 5 6
7 10 11 13 12 19 24 30 30 28 32 34 36 32 31 31 34 37 31 22 24 28 29 26 22 19 17 16 14 11 9 9 9 8 6 4 2 2 2 2 3 3 7 10
12 9 12 13 12 14 25 29 27 29 32 31 30 34 37 32 34 27 24 32 31 32 29 26 21 17 16 15 13 10 10 9 8 6 5 3 2 2 2 3 4 6 9 10
14 16 21 16 13 20 25 27 29 33 34 34 36 36 34 35 34 32 22 29 35 32 29 26 21 18 17 15 12 10 10 8 7 5 5 3 3 2 3 4 6 9 10 9
17 18 19 17 12 19 12 18 27 26 27 29 34 39 45 36 24 22 27 38 35 32 28 26 21 19 18 15 11 11 10 8 6 6 5 4 4 3 4 6 8 10 9 10
18 18 12 1 4 5 18 25 28 30 31 29 31 30 32 30 37 35 39 38 34 30 27 23 21 20 17 13 12 12 10 7 6 5 4 6 5 5 5 7 9 10 10 11
14 10 6 4 5 13 17 23 22 29 33 30 27 30 33 31 37 39 39 37 33 29 27 25 22 19 16 14 13 12 10 8 6 4 4 5 5 5 6 7 9 10 10 11
4 2 6 8 12 16 17 18 22 23 29 33 30 32 39 40 41 40 37 36 33 29 27 24 22 19 15 14 12 11 10 8 7 5 5 5 5 4 5 7 8 9 11 12
Wind_Direction
215 184 168 194 180 166 181 189 171 233 204 209 197 184 172 145 135 129 123 113 109 109 104 103 102 104 109 115 121 123 118 113 110 108 104 98 88 78 71 77 85 85 75 89
204 202 192 196 206 187 206 141 269 209 250 236 122 108 148 163 151 143 136 126 122 118 115 112 113 112 116 118 120 122 116 114 114 110 104 96 87 81 84 88 82 71 84 82
245 225 205 305 214 184 183 198 157 192 222 134 161 177 182 171 158 151 148 141 137 132 124 123 123 126 122 124 124 120 117 118 117 114 105 92 87 91 91 86 78 77 82 64
179 63 253 237 229 190 189 203 199 168 183 179 189 186 138 165 156 153 150 144 140 133 126 131 135 132 129 128 125 123 122 122 119 113 104 99 100 101 101 89 75 83 88 62
145 190 281 297 216 182 168 249 196 200 145 123 111 82 45 162 161 157 150 147 143 139 138 138 139 138 134 131 129 128 127 127 124 116 109 114 112 111 101 81 65 120 98 71
153 175 205 222 231 172 107 280 189 159 157 149 143 157 213 161 145 134 141 142 140 141 142 144 144 143 138 137 137 134 134 131 126 119 120 125 125 114 95 62 62 123 99 27
164 223 285 253 223 123 148 237 177 164 166 162 181 192 137 133 139 144 144 141 143 145 145 149 150 147 139 141 140 139 134 131 130 130 129 127 134 120 93 70 64 83 71 37
111 103 252 195 78 160 217 258 166 154 169 166 117 125 137 137 138 139 139 140 144 141 145 153 154 150 143 143 145 142 139 136 134 139 137 146 145 131 116 85 62 72 59 34
177 208 229 238 214 197 175 161 182 140 143 134 132 138 143 143 143 145 145 144 146 143 145 155 156 156 145 147 150 149 145 139 141 147 147 161 159 164 176 170 34 359 348 4
79 262 236 231 229 234 178 193 172 154 150 148 144 145 144 142 144 146 145 144 145 142 143 150 155 153 149 154 158 156 150 149 154 158 155 165 172 209 218 225 271 309 312 327
297 274 289 274 248 253 148 122 113 134 152 149 144 153 148 149 150 148 146 146 148 146 146 149 151 148 152 158 164 155 155 158 161 163 164 160 160 177 180 262 280 299 313 317
197 63 291 283 302 201 163 167 157 145 135 153 155 153 151 151 152 150 148 148 146 148 149 152 153 151 155 163 171 162 158 161 161 168 169 172 166 154 113 81 48 342 322 313
279 305 268 269 312 37 352 197 162 160 157 153 156 154 154 151 153 152 149 151 152 154 156 158 158 154 158 163 168 166 164 165 171 177 180 175 162 162 169 152 27 13 43 94
305 317 296 336 321 312 137 103 147 131 149 153 151 152 150 149 149 153 156 157 157 158 160 161 160 158 161 162 165 165 160 168 195 188 191 185 161 150 159 197 151 118 172 353
270 250 243 270 322 336 126 129 137 151 145 145 156 153 153 153 156 157 154 157 159 162 162 163 162 159 164 167 164 166 168 168 175 177 173 169 166 219 270 166 143 77 1 336
280 285 293 313 299 190 157 161 150 167 158 157 157 159 157 152 148 147 152 160 155 156 164 168 167 167 169 170 165 170 170 168 176 177 176 183 161 147 141 141 128 18 11 8
265 288 308 290 276 184 195 187 186 173 162 162 158 148 144 139 139 144 152 162 167 165 170 171 168 168 170 172 171 170 176 177 187 182 186 199 155 135 136 144 347 85 30 360
241 251 241 252 268 206 189 197 180 174 181 160 149 147 146 150 151 148 148 159 159 158 167 170 168 167 169 170 174 172 176 179 185 186 178 166 160 162 4 336 348 256 358 342
264 269 265 254 253 235 196 186 169 164 157 154 149 153 152 149 148 147 152 154 151 148 165 168 165 166 169 172 175 173 175 176 176 180 178 176 165 299 330 333 354 72 2 340
294 275 261 249 238 218 196 165 154 151 156 152 144 142 141 147 150 149 155 153 161 168 165 166 165 165 169 172 176 175 176 178 181 174 179 181 200 284 319 327 17 7 353 332
309 297 299 276 244 209 189 170 159 157 161 161 157 156 150 148 150 149 142 138 164 168 165 166 168 165 166 169 174 174 182 184 180 183 193 197 224 279 314 341 10 349 335 329
330 315 305 298 264 208 185 176 170 157 156 157 151 146 142 143 145 149 157 158 161 165 165 168 168 169 167 171 174 175 183 182 179 186 195 200 216 249 294 326 352 340 332 329
323 319 311 299 225 196 180 167 164 162 159 157 153 150 149 150 152 147 139 162 164 170 169 168 169 168 170 174 177 181 184 177 177 198 206 210 233 261 297 326 342 335 331 330
328 327 313 307 194 150 143 151 148 152 149 148 149 151 145 139 139 161 167 164 167 168 166 166 169 169 172 174 178 182 182 179 186 204 216 225 237 262 294 319 329 332 326 323
326 323 316 251 179 153 140 138 129 133 135 137 142 147 150 154 159 164 167 164 164 163 165 169 169 170 173 175 179 184 183 183 188 200 235 235 252 275 307 322 325 324 317 319
326 310 301 248 173 145 146 148 145 146 141 139 139 142 147 156 158 158 160 159 164 166 164 165 168 170 171 174 179 184 188 189 197 227 246 245 264 290 315 320 322 320 317 322
312 240 127 115 143 149 159 155 151 156 152 148 138 141 147 148 151 153 159 162 164 166 166 166 168 170 172 175 176 186 193 204 216 236 247 263 278 289 316 320 321 316 318 320